Time,TemperatureF,DewpointF,PressureIn,WindDirection,WindDirectionDegrees,WindSpeedMPH,WindSpeedGustMPH,Humidity,HourlyPrecipIn,Conditions,Clouds,dailyrainin,SoftwareType,DateUTC
2013-11-20 00:02:00,53.3,32.5,29.98,SE,141,9.0,17.0,45,0.00,,---,0.00,VWS V14.00,2013-11-20 06:02:00,
2013-11-20 00:07:00,53.3,32.5,29.98,SE,142,5.0,13.0,45,0.00,,---,0.00,VWS V14.00,2013-11-20 06:07:00,
2013-11-20 00:12:00,53.1,34.0,29.98,SSE,157,7.0,12.0,48,0.00,,---,0.00,VWS V14.00,2013-11-20 06:12:00,
2013-11-20 00:17:00,52.8,34.2,29.98,SSE,148,6.0,10.0,49,0.00,,---,0.00,VWS V14.00,2013-11-20 06:17:00,
2013-11-20 00:22:00,52.4,33.8,29.98,SE,146,4.0,10.0,49,0.00,,---,0.00,VWS V14.00,2013-11-20 06:22:00,
2013-11-20 00:27:00,52.3,34.2,29.98,SE,138,6.0,12.0,50,0.00,,---,0.00,VWS V14.00,2013-11-20 06:27:00,
2013-11-20 00:32:00,52.3,33.2,29.98,SSE,164,7.0,18.0,48,0.00,,---,0.00,VWS V14.00,2013-11-20 06:32:00,
2013-11-20 00:37:00,52.6,33.0,29.98,SSE,166,6.0,15.0,47,0.00,,---,0.00,VWS V14.00,2013-11-20 06:37:00,
2013-11-20 00:42:00,52.8,33.2,29.97,SSE,150,9.0,19.0,47,0.00,,---,0.00,VWS V14.00,2013-11-20 06:42:00,
2013-11-20 00:47:00,53.0,32.8,29.97,SE,141,9.0,15.0,46,0.00,,---,0.00,VWS V14.00,2013-11-20 06:47:00,
2013-11-20 00:52:00,53.1,32.9,29.97,SSE,155,8.0,17.0,46,0.00,,---,0.00,VWS V14.00,2013-11-20 06:52:00,
2013-11-20 00:57:00,53.1,32.9,29.97,SSE,162,11.0,15.0,46,0.00,,---,0.00,VWS V14.00,2013-11-20 06:57:00,
2013-11-20 01:02:00,53.1,32.9,29.97,SSE,155,6.0,15.0,46,0.00,,---,0.00,VWS V14.00,2013-11-20 07:02:00,
2013-11-20 01:07:00,53.1,32.9,29.96,SSE,148,7.0,17.0,46,0.00,,---,0.00,VWS V14.00,2013-11-20 07:07:00,
2013-11-20 01:12:00,52.9,32.7,29.96,SE,136,8.0,14.0,46,0.00,,---,0.00,VWS V14.00,2013-11-20 07:12:00,
2013-11-20 01:17:00,52.7,32.5,29.95,SE,138,12.0,17.0,46,0.00,,---,0.00,VWS V14.00,2013-11-20 07:17:00,
2013-11-20 01:22:00,52.5,32.9,29.95,SSE,156,10.0,16.0,47,0.00,,---,0.00,VWS V14.00,2013-11-20 07:22:00,
2013-11-20 01:27:00,52.4,32.2,29.95,SSE,157,11.0,18.0,46,0.00,,---,0.00,VWS V14.00,2013-11-20 07:27:00,
2013-11-20 01:32:00,52.4,32.2,29.96,SSE,155,9.0,19.0,46,0.00,,---,0.00,VWS V14.00,2013-11-20 07:32:00,
2013-11-20 01:37:00,52.4,32.2,29.96,SSE,148,10.0,19.0,46,0.00,,---,0.00,VWS V14.00,2013-11-20 07:37:00,
2013-11-20 01:42:00,52.4,32.2,29.96,SE,146,7.0,16.0,46,0.00,,---,0.00,VWS V14.00,2013-11-20 07:42:00,
2013-11-20 01:47:00,52.3,32.7,29.96,SSE,161,10.0,14.0,47,0.00,,---,0.00,VWS V14.00,2013-11-20 07:47:00,
2013-11-20 01:52:00,52.2,32.6,29.95,SE,142,9.0,17.0,47,0.00,,---,0.00,VWS V14.00,2013-11-20 07:52:00,
2013-11-20 01:57:00,52.2,32.6,29.95,SE,132,7.0,18.0,47,0.00,,---,0.00,VWS V14.00,2013-11-20 07:57:00,
2013-11-20 02:02:00,52.2,32.6,29.96,SE,134,11.0,16.0,47,0.00,,---,0.00,VWS V14.00,2013-11-20 08:02:00,
2013-11-20 02:07:00,52.3,32.7,29.96,SE,139,13.0,19.0,47,0.00,,---,0.00,VWS V14.00,2013-11-20 08:07:00,
2013-11-20 02:12:00,52.4,32.8,29.95,SE,144,14.0,21.0,47,0.00,,---,0.00,VWS V14.00,2013-11-20 08:12:00,
2013-11-20 02:17:00,52.5,32.3,29.95,SSE,147,9.0,19.0,46,0.00,,---,0.00,VWS V14.00,2013-11-20 08:17:00,
2013-11-20 02:22:00,52.4,32.2,29.95,SSE,151,12.0,17.0,46,0.00,,---,0.00,VWS V14.00,2013-11-20 08:22:00,
2013-11-20 02:27:00,52.5,32.3,29.96,SSE,149,6.0,18.0,46,0.00,,---,0.00,VWS V14.00,2013-11-20 08:27:00,
2013-11-20 02:32:00,52.5,32.3,29.95,SSE,147,7.0,17.0,46,0.00,,---,0.00,VWS V14.00,2013-11-20 08:32:00,
2013-11-20 02:37:00,52.4,32.2,29.95,SE,142,4.0,15.0,46,0.00,,---,0.00,VWS V14.00,2013-11-20 08:37:00,
2013-11-20 02:42:00,52.3,32.7,29.94,SE,127,11.0,19.0,47,0.00,,---,0.00,VWS V14.00,2013-11-20 08:42:00,
2013-11-20 02:47:00,52.3,32.2,29.94,SSE,147,9.0,24.0,46,0.00,,---,0.00,VWS V14.00,2013-11-20 08:47:00,
2013-11-20 02:52:00,52.3,32.2,29.95,South,170,11.0,22.0,46,0.00,,---,0.00,VWS V14.00,2013-11-20 08:52:00,
2013-11-20 02:57:00,52.3,32.2,29.95,SSE,158,7.0,17.0,46,0.00,,---,0.00,VWS V14.00,2013-11-20 08:57:00,
2013-11-20 03:02:00,52.3,32.2,29.96,South,170,10.0,21.0,46,0.00,,---,0.00,VWS V14.00,2013-11-20 09:02:00,
2013-11-20 03:07:00,52.3,32.2,29.96,SSE,165,10.0,14.0,46,0.00,,---,0.00,VWS V14.00,2013-11-20 09:07:00,
2013-11-20 03:12:00,52.3,32.2,29.95,SSE,153,6.0,15.0,46,0.00,,---,0.00,VWS V14.00,2013-11-20 09:12:00,
2013-11-20 03:17:00,52.3,31.6,29.95,SSE,165,10.0,17.0,45,0.00,,---,0.00,VWS V14.00,2013-11-20 09:17:00,
2013-11-20 03:22:00,52.3,32.2,29.95,SE,134,17.0,18.0,46,0.00,,---,0.00,VWS V14.00,2013-11-20 09:22:00,
2013-11-20 03:27:00,52.3,31.6,29.94,SSE,148,12.0,17.0,45,0.00,,---,0.00,VWS V14.00,2013-11-20 09:27:00,
2013-11-20 03:32:00,52.2,31.5,29.93,SE,146,9.0,20.0,45,0.00,,---,0.00,VWS V14.00,2013-11-20 09:32:00,
2013-11-20 03:37:00,52.2,31.5,29.94,SSE,153,14.0,18.0,45,0.00,,---,0.00,VWS V14.00,2013-11-20 09:37:00,
2013-11-20 03:42:00,52.1,30.9,29.94,SSE,166,15.0,17.0,44,0.00,,---,0.00,VWS V14.00,2013-11-20 09:42:00,
2013-11-20 03:47:00,52.1,30.9,29.93,SE,145,12.0,19.0,44,0.00,,---,0.00,VWS V14.00,2013-11-20 09:47:00,
2013-11-20 03:52:00,51.9,31.2,29.93,SSE,152,8.0,16.0,45,0.00,,---,0.00,VWS V14.00,2013-11-20 09:52:00,
2013-11-20 03:57:00,51.8,30.6,29.92,SE,136,9.0,18.0,44,0.00,,---,0.00,VWS V14.00,2013-11-20 09:57:00,
2013-11-20 04:02:00,51.7,31.1,29.92,SSE,151,13.0,17.0,45,0.00,,---,0.00,VWS V14.00,2013-11-20 10:02:00,
2013-11-20 04:07:00,51.7,31.1,29.92,SE,131,14.0,19.0,45,0.00,,---,0.00,VWS V14.00,2013-11-20 10:07:00,
2013-11-20 04:12:00,51.5,30.9,29.92,SE,143,5.0,15.0,45,0.00,,---,0.00,VWS V14.00,2013-11-20 10:12:00,
2013-11-20 04:17:00,51.3,30.7,29.92,SE,142,12.0,17.0,45,0.00,,---,0.00,VWS V14.00,2013-11-20 10:17:00,
2013-11-20 04:22:00,51.0,30.4,29.92,SSE,155,11.0,15.0,45,0.00,,---,0.00,VWS V14.00,2013-11-20 10:22:00,
2013-11-20 04:27:00,50.8,30.8,29.93,SSE,153,11.0,14.0,46,0.00,,---,0.00,VWS V14.00,2013-11-20 10:27:00,
2013-11-20 04:32:00,50.7,30.1,29.93,SSE,158,7.0,19.0,45,0.00,,---,0.00,VWS V14.00,2013-11-20 10:32:00,
2013-11-20 04:37:00,50.6,30.6,29.93,SSE,167,12.0,13.0,46,0.00,,---,0.00,VWS V14.00,2013-11-20 10:37:00,
2013-11-20 04:42:00,50.4,30.4,29.92,SSE,151,5.0,16.0,46,0.00,,---,0.00,VWS V14.00,2013-11-20 10:42:00,
2013-11-20 04:47:00,50.3,29.8,29.92,SE,138,10.0,14.0,45,0.00,,---,0.00,VWS V14.00,2013-11-20 10:47:00,
2013-11-20 04:52:00,50.2,30.2,29.92,SE,143,7.0,14.0,46,0.00,,---,0.00,VWS V14.00,2013-11-20 10:52:00,
2013-11-20 04:57:00,50.2,29.7,29.92,SSE,149,11.0,14.0,45,0.00,,---,0.00,VWS V14.00,2013-11-20 10:57:00,
2013-11-20 05:02:00,50.3,29.8,29.92,SSE,168,9.0,15.0,45,0.00,,---,0.00,VWS V14.00,2013-11-20 11:02:00,
2013-11-20 05:07:00,50.3,29.8,29.92,SSE,165,12.0,15.0,45,0.00,,---,0.00,VWS V14.00,2013-11-20 11:07:00,
2013-11-20 05:12:00,50.3,29.8,29.92,SSE,168,12.0,16.0,45,0.00,,---,0.00,VWS V14.00,2013-11-20 11:12:00,
2013-11-20 05:17:00,50.4,29.9,29.92,SSE,158,7.0,22.0,45,0.00,,---,0.00,VWS V14.00,2013-11-20 11:17:00,
2013-11-20 05:22:00,50.4,29.9,29.92,South,171,15.0,18.0,45,0.00,,---,0.00,VWS V14.00,2013-11-20 11:22:00,
2013-11-20 05:27:00,50.4,29.9,29.91,SSE,155,12.0,17.0,45,0.00,,---,0.00,VWS V14.00,2013-11-20 11:27:00,
2013-11-20 05:31:00,50.3,29.8,29.92,SE,146,15.0,16.0,45,0.00,,---,0.00,VWS V14.00,2013-11-20 11:31:00,
2013-11-20 05:37:00,50.4,29.9,29.92,South,178,12.0,17.0,45,0.00,,---,0.00,VWS V14.00,2013-11-20 11:37:00,
2013-11-20 05:42:00,50.5,30.0,29.92,SSE,152,17.0,17.0,45,0.00,,---,0.00,VWS V14.00,2013-11-20 11:42:00,
2013-11-20 05:47:00,50.5,30.0,29.91,SE,145,12.0,18.0,45,0.00,,---,0.00,VWS V14.00,2013-11-20 11:47:00,
2013-11-20 05:52:00,50.5,30.0,29.92,SSE,155,7.0,16.0,45,0.00,,---,0.00,VWS V14.00,2013-11-20 11:52:00,
2013-11-20 05:57:00,50.5,30.0,29.93,South,169,11.0,17.0,45,0.00,,---,0.00,VWS V14.00,2013-11-20 11:57:00,
2013-11-20 06:01:00,50.5,30.0,29.92,SSE,159,9.0,21.0,45,0.00,,---,0.00,VWS V14.00,2013-11-20 12:01:00,
2013-11-20 06:07:00,50.5,30.0,29.92,SSE,166,12.0,17.0,45,0.00,,---,0.00,VWS V14.00,2013-11-20 12:07:00,
2013-11-20 06:11:00,50.3,29.8,29.93,SSE,153,11.0,17.0,45,0.00,,---,0.00,VWS V14.00,2013-11-20 12:11:00,
2013-11-20 06:16:00,50.3,29.8,29.93,SSE,152,9.0,16.0,45,0.00,,---,0.00,VWS V14.00,2013-11-20 12:16:00,
2013-11-20 06:21:00,50.1,29.6,29.93,South,171,10.0,15.0,45,0.00,,---,0.00,VWS V14.00,2013-11-20 12:21:00,
2013-11-20 06:26:00,50.0,30.0,29.93,SSE,150,10.0,15.0,46,0.00,,---,0.00,VWS V14.00,2013-11-20 12:26:00,
2013-11-20 06:31:00,49.9,30.0,29.93,SSE,165,7.0,16.0,46,0.00,,---,0.00,VWS V14.00,2013-11-20 12:31:00,
2013-11-20 06:36:00,49.8,29.9,29.93,SSE,165,7.0,16.0,46,0.00,,---,0.00,VWS V14.00,2013-11-20 12:36:00,
2013-11-20 06:41:00,49.7,29.8,29.93,SE,130,14.0,16.0,46,0.00,,---,0.00,VWS V14.00,2013-11-20 12:41:00,
2013-11-20 06:46:00,49.5,29.6,29.92,SE,140,12.0,16.0,46,0.00,,---,0.00,VWS V14.00,2013-11-20 12:46:00,
2013-11-20 06:51:00,49.3,29.4,29.93,SSE,155,7.0,17.0,46,0.00,,---,0.00,VWS V14.00,2013-11-20 12:51:00,
2013-11-20 06:57:00,49.2,29.3,29.93,SSE,153,10.0,17.0,46,0.00,,---,0.00,VWS V14.00,2013-11-20 12:57:00,
2013-11-20 07:02:00,49.2,29.3,29.93,SSE,162,10.0,19.0,46,0.00,,---,0.00,VWS V14.00,2013-11-20 13:02:00,
2013-11-20 07:07:00,49.2,29.9,29.93,SSE,153,17.0,19.0,47,0.00,,---,0.00,VWS V14.00,2013-11-20 13:07:00,
2013-11-20 07:12:00,49.0,29.7,29.92,SSE,147,4.0,16.0,47,0.00,,---,0.00,VWS V14.00,2013-11-20 13:12:00,
2013-11-20 07:17:00,48.9,29.6,29.93,SSE,161,14.0,17.0,47,0.00,,---,0.00,VWS V14.00,2013-11-20 13:17:00,
2013-11-20 07:21:00,48.8,30.0,29.93,SSE,157,7.0,16.0,48,0.00,,---,0.00,VWS V14.00,2013-11-20 13:21:00,
2013-11-20 07:26:00,48.8,30.0,29.93,SE,144,10.0,16.0,48,0.00,,---,0.00,VWS V14.00,2013-11-20 13:26:00,
2013-11-20 07:31:00,48.7,29.9,29.92,SE,145,17.0,19.0,48,0.00,,---,0.00,VWS V14.00,2013-11-20 13:31:00,
2013-11-20 07:36:00,48.7,29.9,29.92,SE,139,14.0,17.0,48,0.00,,---,0.00,VWS V14.00,2013-11-20 13:36:00,
2013-11-20 07:41:00,48.6,29.8,29.92,SE,142,9.0,16.0,48,0.00,,---,0.00,VWS V14.00,2013-11-20 13:41:00,
2013-11-20 07:46:00,48.6,30.3,29.93,South,170,12.0,14.0,49,0.00,,---,0.00,VWS V14.00,2013-11-20 13:46:00,
2013-11-20 07:52:00,48.6,29.8,29.93,SE,145,10.0,22.0,48,0.00,,---,0.00,VWS V14.00,2013-11-20 13:52:00,
2013-11-20 07:57:00,48.6,30.3,29.93,SSE,152,6.0,18.0,49,0.00,,---,0.00,VWS V14.00,2013-11-20 13:57:00,
2013-11-20 08:02:00,48.7,30.4,29.94,SSE,163,11.0,19.0,49,0.00,,---,0.00,VWS V14.00,2013-11-20 14:02:00,
2013-11-20 08:07:00,48.8,30.5,29.95,SE,135,10.0,17.0,49,0.00,,---,0.00,VWS V14.00,2013-11-20 14:07:00,
2013-11-20 08:11:00,48.8,30.5,29.94,SSE,155,9.0,17.0,49,0.00,,---,0.00,VWS V14.00,2013-11-20 14:11:00,
2013-11-20 08:16:00,48.8,30.5,29.94,SSE,149,9.0,21.0,49,0.00,,---,0.00,VWS V14.00,2013-11-20 14:16:00,
2013-11-20 08:21:00,48.8,30.5,29.94,SSE,152,6.0,17.0,49,0.00,,---,0.00,VWS V14.00,2013-11-20 14:21:00,
2013-11-20 08:26:00,49.0,30.7,29.94,South,172,12.0,17.0,49,0.00,,---,0.00,VWS V14.00,2013-11-20 14:26:00,
2013-11-20 08:31:00,49.4,31.1,29.95,South,171,7.0,13.0,49,0.00,,---,0.00,VWS V14.00,2013-11-20 14:31:00,
2013-11-20 08:36:00,50.0,31.6,29.96,South,179,9.0,13.0,49,0.00,,---,0.00,VWS V14.00,2013-11-20 14:36:00,
2013-11-20 08:41:00,50.5,31.6,29.95,SSE,163,15.0,18.0,48,0.00,,---,0.00,VWS V14.00,2013-11-20 14:41:00,
2013-11-20 08:46:00,50.6,31.6,29.95,SSE,159,6.0,19.0,48,0.00,,---,0.00,VWS V14.00,2013-11-20 14:46:00,
2013-11-20 08:51:00,51.0,31.0,29.95,SSE,168,14.0,19.0,46,0.00,,---,0.00,VWS V14.00,2013-11-20 14:51:00,
2013-11-20 08:56:00,51.1,32.1,29.95,SSE,161,11.0,18.0,48,0.00,,---,0.00,VWS V14.00,2013-11-20 14:56:00,
2013-11-20 09:02:00,51.1,31.6,29.94,South,180,16.0,21.0,47,0.00,,---,0.00,VWS V14.00,2013-11-20 15:02:00,
2013-11-20 09:07:00,51.2,31.1,29.94,SSE,152,11.0,21.0,46,0.00,,---,0.00,VWS V14.00,2013-11-20 15:07:00,
2013-11-20 09:12:00,51.2,31.1,29.94,South,186,12.0,20.0,46,0.00,,---,0.00,VWS V14.00,2013-11-20 15:12:00,
2013-11-20 09:17:00,51.2,31.1,29.95,SSE,156,9.0,24.0,46,0.00,,---,0.00,VWS V14.00,2013-11-20 15:17:00,
2013-11-20 09:22:00,51.2,31.1,29.95,South,176,11.0,20.0,46,0.00,,---,0.00,VWS V14.00,2013-11-20 15:22:00,
2013-11-20 09:27:00,51.2,31.1,29.94,SSE,150,15.0,20.0,46,0.00,,---,0.00,VWS V14.00,2013-11-20 15:27:00,
2013-11-20 09:32:00,51.2,31.1,29.94,SSE,164,16.0,26.0,46,0.00,,---,0.00,VWS V14.00,2013-11-20 15:32:00,
2013-11-20 09:37:00,51.4,31.3,29.94,SSE,156,14.0,25.0,46,0.00,,---,0.00,VWS V14.00,2013-11-20 15:37:00,
2013-11-20 09:42:00,51.6,31.5,29.94,South,182,18.0,21.0,46,0.00,,---,0.00,VWS V14.00,2013-11-20 15:42:00,
2013-11-20 09:47:00,51.7,31.6,29.94,SE,142,14.0,30.0,46,0.00,,---,0.00,VWS V14.00,2013-11-20 15:47:00,
2013-11-20 09:52:00,51.8,31.1,29.93,SSE,167,18.0,27.0,45,0.00,,---,0.00,VWS V14.00,2013-11-20 15:52:00,
2013-11-20 09:57:00,51.9,31.2,29.93,South,176,20.0,25.0,45,0.00,,---,0.00,VWS V14.00,2013-11-20 15:57:00,
2013-11-20 10:02:00,52.1,32.0,29.94,SSE,155,14.0,25.0,46,0.00,,---,0.00,VWS V14.00,2013-11-20 16:02:00,
2013-11-20 10:07:00,52.2,32.1,29.94,South,180,26.0,26.0,46,0.00,,---,0.00,VWS V14.00,2013-11-20 16:07:00,
2013-11-20 10:12:00,52.2,31.5,29.94,South,175,15.0,28.0,45,0.00,,---,0.00,VWS V14.00,2013-11-20 16:12:00,
2013-11-20 10:17:00,52.1,31.4,29.94,South,182,17.0,26.0,45,0.00,,---,0.00,VWS V14.00,2013-11-20 16:17:00,
2013-11-20 10:22:00,52.1,32.0,29.94,South,173,13.0,28.0,46,0.00,,---,0.00,VWS V14.00,2013-11-20 16:22:00,
2013-11-20 10:27:00,52.1,32.0,29.94,SSE,162,14.0,26.0,46,0.00,,---,0.00,VWS V14.00,2013-11-20 16:27:00,
2013-11-20 10:32:00,52.2,32.1,29.94,South,180,15.0,27.0,46,0.00,,---,0.00,VWS V14.00,2013-11-20 16:32:00,
2013-11-20 10:37:00,52.6,32.4,29.93,South,172,12.0,25.0,46,0.00,,---,0.00,VWS V14.00,2013-11-20 16:37:00,
2013-11-20 10:42:00,52.9,32.2,29.94,SSE,156,11.0,26.0,45,0.00,,---,0.00,VWS V14.00,2013-11-20 16:42:00,
2013-11-20 10:47:00,53.3,33.1,29.93,SSE,155,11.0,21.0,46,0.00,,---,0.00,VWS V14.00,2013-11-20 16:47:00,
2013-11-20 10:52:00,53.7,32.9,29.93,South,184,18.0,23.0,45,0.00,,---,0.00,VWS V14.00,2013-11-20 16:52:00,
2013-11-20 10:57:00,53.9,33.1,29.92,SSE,155,18.0,22.0,45,0.00,,---,0.00,VWS V14.00,2013-11-20 16:57:00,
2013-11-20 11:02:00,54.2,33.3,29.91,SSW,194,23.0,26.0,45,0.00,,---,0.00,VWS V14.00,2013-11-20 17:02:00,
2013-11-20 11:07:00,54.6,33.7,29.91,SSE,156,16.0,26.0,45,0.00,,---,0.00,VWS V14.00,2013-11-20 17:07:00,
2013-11-20 11:12:00,54.8,33.9,29.91,SSE,159,19.0,28.0,45,0.00,,---,0.00,VWS V14.00,2013-11-20 17:12:00,
2013-11-20 11:17:00,55.3,34.3,29.90,SSE,164,21.0,28.0,45,0.00,,---,0.00,VWS V14.00,2013-11-20 17:17:00,
2013-11-20 11:22:00,55.5,34.0,29.90,South,184,15.0,30.0,44,0.00,,---,0.00,VWS V14.00,2013-11-20 17:22:00,
2013-11-20 11:27:00,55.7,34.7,29.90,SSE,163,20.0,30.0,45,0.00,,---,0.00,VWS V14.00,2013-11-20 17:27:00,
2013-11-20 11:32:00,56.0,35.0,29.89,South,172,22.0,28.0,45,0.00,,---,0.00,VWS V14.00,2013-11-20 17:32:00,
2013-11-20 11:37:00,56.1,35.1,29.88,South,191,20.0,30.0,45,0.00,,---,0.00,VWS V14.00,2013-11-20 17:37:00,
2013-11-20 11:42:00,56.2,35.7,29.88,SSE,163,18.0,27.0,46,0.00,,---,0.00,VWS V14.00,2013-11-20 17:42:00,
2013-11-20 11:47:00,56.2,35.7,29.88,SSE,168,19.0,28.0,46,0.00,,---,0.00,VWS V14.00,2013-11-20 17:47:00,
2013-11-20 11:52:00,56.1,35.6,29.88,South,183,17.0,27.0,46,0.00,,---,0.00,VWS V14.00,2013-11-20 17:52:00,
2013-11-20 11:56:00,56.2,35.7,29.88,South,175,17.0,28.0,46,0.00,,---,0.00,VWS V14.00,2013-11-20 17:56:00,
2013-11-20 12:02:00,56.3,36.3,29.88,South,170,19.0,24.0,47,0.00,,---,0.00,VWS V14.00,2013-11-20 18:02:00,
2013-11-20 12:06:00,56.6,36.6,29.87,SE,142,15.0,25.0,47,0.00,,---,0.00,VWS V14.00,2013-11-20 18:06:00,
2013-11-20 12:11:00,56.6,36.6,29.87,SSW,198,18.0,29.0,47,0.00,,---,0.00,VWS V14.00,2013-11-20 18:11:00,
2013-11-20 12:16:00,56.7,36.7,29.87,SSW,203,15.0,26.0,47,0.00,,---,0.00,VWS V14.00,2013-11-20 18:16:00,
2013-11-20 12:21:00,56.8,37.3,29.87,South,173,23.0,28.0,48,0.00,,---,0.00,VWS V14.00,2013-11-20 18:21:00,
2013-11-20 12:26:00,56.9,36.9,29.86,South,172,14.0,24.0,47,0.00,,---,0.00,VWS V14.00,2013-11-20 18:26:00,
2013-11-20 12:31:00,57.0,37.0,29.86,SSE,148,22.0,25.0,47,0.00,,---,0.00,VWS V14.00,2013-11-20 18:31:00,
2013-11-20 12:36:00,57.1,37.1,29.86,South,188,13.0,22.0,47,0.00,,---,0.00,VWS V14.00,2013-11-20 18:36:00,
2013-11-20 12:41:00,57.4,37.3,29.86,SSE,154,17.0,21.0,47,0.00,,---,0.00,VWS V14.00,2013-11-20 18:41:00,
2013-11-20 12:46:00,57.6,37.5,29.86,SSE,150,15.0,25.0,47,0.00,,---,0.00,VWS V14.00,2013-11-20 18:46:00,
2013-11-20 12:51:00,57.7,37.6,29.85,South,183,19.0,22.0,47,0.00,,---,0.00,VWS V14.00,2013-11-20 18:51:00,
2013-11-20 12:56:00,58.0,37.9,29.85,South,182,13.0,22.0,47,0.00,,---,0.00,VWS V14.00,2013-11-20 18:56:00,
2013-11-20 13:01:00,58.1,38.5,29.85,SSE,161,11.0,21.0,48,0.00,,---,0.00,VWS V14.00,2013-11-20 19:01:00,
2013-11-20 13:06:00,57.8,38.3,29.85,South,170,13.0,22.0,48,0.00,,---,0.00,VWS V14.00,2013-11-20 19:06:00,
2013-11-20 13:11:00,57.6,38.6,29.85,South,170,13.0,20.0,49,0.00,,---,0.00,VWS V14.00,2013-11-20 19:11:00,
2013-11-20 13:16:00,57.4,38.4,29.85,SSE,165,11.0,22.0,49,0.00,,---,0.00,VWS V14.00,2013-11-20 19:16:00,
2013-11-20 13:21:00,57.3,38.3,29.84,SE,146,10.0,18.0,49,0.00,,---,0.00,VWS V14.00,2013-11-20 19:21:00,
2013-11-20 13:26:00,57.4,38.9,29.84,SSE,162,11.0,18.0,50,0.00,,---,0.00,VWS V14.00,2013-11-20 19:26:00,
2013-11-20 13:31:00,57.7,39.2,29.84,SSE,158,15.0,18.0,50,0.00,,---,0.00,VWS V14.00,2013-11-20 19:31:00,
2013-11-20 13:36:00,58.0,40.0,29.84,SE,144,16.0,21.0,51,0.00,,---,0.00,VWS V14.00,2013-11-20 19:36:00,
2013-11-20 13:41:00,58.2,40.2,29.83,South,190,15.0,18.0,51,0.00,,---,0.00,VWS V14.00,2013-11-20 19:41:00,
2013-11-20 13:46:00,58.4,39.8,29.83,South,190,10.0,21.0,50,0.00,,---,0.00,VWS V14.00,2013-11-20 19:46:00,
2013-11-20 13:51:00,58.6,40.5,29.83,South,189,9.0,16.0,51,0.00,,---,0.00,VWS V14.00,2013-11-20 19:51:00,
2013-11-20 13:56:00,58.9,41.3,29.83,SSW,197,17.0,20.0,52,0.00,,---,0.00,VWS V14.00,2013-11-20 19:56:00,
2013-11-20 14:01:00,59.0,41.4,29.82,SSE,155,15.0,18.0,52,0.00,,---,0.00,VWS V14.00,2013-11-20 20:01:00,
2013-11-20 14:06:00,59.0,41.4,29.82,SSE,159,12.0,22.0,52,0.00,,---,0.00,VWS V14.00,2013-11-20 20:06:00,
2013-11-20 14:11:00,59.5,41.4,29.82,SSE,165,16.0,22.0,51,0.00,,---,0.00,VWS V14.00,2013-11-20 20:11:00,
2013-11-20 14:16:00,59.7,42.1,29.82,South,185,13.0,22.0,52,0.00,,---,0.00,VWS V14.00,2013-11-20 20:16:00,
2013-11-20 14:21:00,59.7,42.1,29.82,South,172,14.0,21.0,52,0.00,,---,0.00,VWS V14.00,2013-11-20 20:21:00,
2013-11-20 14:26:00,59.7,42.6,29.82,SSE,166,10.0,19.0,53,0.00,,---,0.00,VWS V14.00,2013-11-20 20:26:00,
2013-11-20 14:31:00,59.8,42.7,29.82,South,169,14.0,18.0,53,0.00,,---,0.00,VWS V14.00,2013-11-20 20:31:00,
2013-11-20 14:36:00,59.8,43.1,29.82,South,171,10.0,17.0,54,0.00,,---,0.00,VWS V14.00,2013-11-20 20:36:00,
2013-11-20 14:41:00,60.0,43.3,29.82,SSE,163,16.0,16.0,54,0.00,,---,0.00,VWS V14.00,2013-11-20 20:41:00,
2013-11-20 14:46:00,60.0,43.8,29.82,SSE,165,10.0,15.0,55,0.00,,---,0.00,VWS V14.00,2013-11-20 20:46:00,
2013-11-20 14:51:00,60.0,43.8,29.82,South,174,15.0,17.0,55,0.00,,---,0.00,VWS V14.00,2013-11-20 20:51:00,
2013-11-20 14:56:00,60.1,43.9,29.82,South,176,13.0,20.0,55,0.00,,---,0.00,VWS V14.00,2013-11-20 20:56:00,
2013-11-20 15:01:00,60.1,43.9,29.82,South,191,11.0,16.0,55,0.00,,---,0.00,VWS V14.00,2013-11-20 21:01:00,
2013-11-20 15:06:00,60.2,44.0,29.82,SSE,168,9.0,16.0,55,0.00,,---,0.00,VWS V14.00,2013-11-20 21:06:00,
2013-11-20 15:11:00,60.2,44.5,29.82,SSW,202,12.0,17.0,56,0.00,,---,0.00,VWS V14.00,2013-11-20 21:11:00,
2013-11-20 15:16:00,60.2,44.9,29.83,SSW,203,10.0,18.0,57,0.00,,---,0.00,VWS V14.00,2013-11-20 21:16:00,
2013-11-20 15:21:00,60.2,44.9,29.83,South,176,9.0,14.0,57,0.00,,---,0.00,VWS V14.00,2013-11-20 21:21:00,
2013-11-20 15:26:00,60.2,44.9,29.83,South,178,6.0,13.0,57,0.00,,---,0.00,VWS V14.00,2013-11-20 21:26:00,
2013-11-20 15:31:00,60.2,44.9,29.83,South,185,6.0,12.0,57,0.00,,---,0.00,VWS V14.00,2013-11-20 21:31:00,
2013-11-20 15:36:00,60.1,44.8,29.83,SSW,200,6.0,16.0,57,0.00,,---,0.00,VWS V14.00,2013-11-20 21:36:00,
2013-11-20 15:41:00,60.0,45.2,29.84,SW,215,13.0,17.0,58,0.00,,---,0.00,VWS V14.00,2013-11-20 21:41:00,
2013-11-20 15:46:00,60.0,45.2,29.84,South,188,10.0,18.0,58,0.00,,---,0.00,VWS V14.00,2013-11-20 21:46:00,
2013-11-20 15:51:00,59.9,45.1,29.84,South,183,9.0,17.0,58,0.00,,---,0.00,VWS V14.00,2013-11-20 21:51:00,
2013-11-20 15:56:00,59.9,45.1,29.84,SSW,198,9.0,15.0,58,0.00,,---,0.00,VWS V14.00,2013-11-20 21:56:00,
2013-11-20 16:01:00,59.8,45.0,29.85,South,188,11.0,13.0,58,0.00,,---,0.00,VWS V14.00,2013-11-20 22:01:00,
2013-11-20 16:06:00,59.7,44.9,29.85,South,188,8.0,10.0,58,0.00,,---,0.00,VWS V14.00,2013-11-20 22:06:00,
2013-11-20 16:12:00,59.6,44.8,29.85,South,191,12.0,13.0,58,0.00,,---,0.00,VWS V14.00,2013-11-20 22:12:00,
2013-11-20 16:17:00,59.6,44.8,29.85,SSW,198,7.0,12.0,58,0.00,,---,0.00,VWS V14.00,2013-11-20 22:17:00,
2013-11-20 16:22:00,59.5,44.7,29.85,SSW,194,9.0,12.0,58,0.00,,---,0.00,VWS V14.00,2013-11-20 22:22:00,
2013-11-20 16:27:00,59.4,44.6,29.85,SSW,193,8.0,10.0,58,0.00,,---,0.00,VWS V14.00,2013-11-20 22:27:00,
2013-11-20 16:32:00,59.3,44.5,29.85,South,190,7.0,11.0,58,0.00,,---,0.00,VWS V14.00,2013-11-20 22:32:00,
2013-11-20 16:37:00,59.2,44.5,29.86,South,190,5.0,8.0,58,0.00,,---,0.00,VWS V14.00,2013-11-20 22:37:00,
2013-11-20 16:42:00,59.2,44.9,29.87,South,190,3.0,5.0,59,0.00,,---,0.00,VWS V14.00,2013-11-20 22:42:00,
2013-11-20 16:47:00,59.0,44.7,29.86,South,190,4.0,5.0,59,0.00,,---,0.00,VWS V14.00,2013-11-20 22:47:00,
2013-11-20 16:52:00,59.0,44.3,29.86,South,190,4.0,6.0,58,0.00,,---,0.00,VWS V14.00,2013-11-20 22:52:00,
2013-11-20 16:57:00,59.0,44.3,29.86,South,190,3.0,7.0,58,0.00,,---,0.00,VWS V14.00,2013-11-20 22:57:00,
2013-11-20 17:02:00,59.0,44.3,29.86,South,190,6.0,8.0,58,0.00,,---,0.00,VWS V14.00,2013-11-20 23:02:00,
2013-11-20 17:07:00,59.0,44.3,29.86,South,189,2.0,9.0,58,0.00,,---,0.00,VWS V14.00,2013-11-20 23:07:00,
2013-11-20 17:11:00,58.9,44.2,29.86,SSE,167,5.0,11.0,58,0.00,,---,0.00,VWS V14.00,2013-11-20 23:11:00,
2013-11-20 17:16:00,58.8,44.1,29.86,SSE,166,4.0,10.0,58,0.00,,---,0.00,VWS V14.00,2013-11-20 23:16:00,
2013-11-20 17:21:00,58.8,44.1,29.86,South,170,6.0,10.0,58,0.00,,---,0.00,VWS V14.00,2013-11-20 23:21:00,
2013-11-20 17:26:00,58.8,44.1,29.86,South,172,4.0,8.0,58,0.00,,---,0.00,VWS V14.00,2013-11-20 23:26:00,
2013-11-20 17:31:00,58.7,44.0,29.87,South,184,8.0,12.0,58,0.00,,---,0.00,VWS V14.00,2013-11-20 23:31:00,
2013-11-20 17:36:00,58.7,43.5,29.87,South,172,6.0,11.0,57,0.00,,---,0.00,VWS V14.00,2013-11-20 23:36:00,
2013-11-20 17:41:00,58.8,43.6,29.87,South,171,5.0,10.0,57,0.00,,---,0.00,VWS V14.00,2013-11-20 23:41:00,
2013-11-20 17:46:00,58.7,43.5,29.87,South,170,3.0,9.0,57,0.00,,---,0.00,VWS V14.00,2013-11-20 23:46:00,
2013-11-20 17:51:00,58.7,44.0,29.87,South,170,2.0,8.0,58,0.00,,---,0.00,VWS V14.00,2013-11-20 23:51:00,
2013-11-20 17:56:00,58.6,43.9,29.87,SSE,167,4.0,7.0,58,0.00,,---,0.00,VWS V14.00,2013-11-20 23:56:00,
2013-11-20 18:01:00,58.6,43.9,29.87,SSE,167,6.0,8.0,58,0.00,,---,0.00,VWS V14.00,2013-11-21 00:01:00,
2013-11-20 18:06:00,58.6,43.9,29.87,SSE,166,6.0,6.0,58,0.00,,---,0.00,VWS V14.00,2013-11-21 00:06:00,
2013-11-20 18:11:00,58.5,43.8,29.88,SSE,166,6.0,9.0,58,0.00,,---,0.00,VWS V14.00,2013-11-21 00:11:00,
2013-11-20 18:16:00,58.5,43.8,29.88,SSE,165,5.0,6.0,58,0.00,,---,0.00,VWS V14.00,2013-11-21 00:16:00,
2013-11-20 18:21:00,58.5,43.8,29.88,SSE,165,4.0,9.0,58,0.00,,---,0.00,VWS V14.00,2013-11-21 00:21:00,
2013-11-20 18:26:00,58.5,43.8,29.88,SSE,167,9.0,11.0,58,0.00,,---,0.00,VWS V14.00,2013-11-21 00:26:00,
2013-11-20 18:31:00,58.5,43.8,29.87,SSE,167,6.0,12.0,58,0.00,,---,0.00,VWS V14.00,2013-11-21 00:31:00,
2013-11-20 18:36:00,58.6,43.9,29.87,SSE,159,4.0,12.0,58,0.00,,---,0.00,VWS V14.00,2013-11-21 00:36:00,
2013-11-20 18:41:00,58.6,43.4,29.87,SSE,155,10.0,14.0,57,0.00,,---,0.00,VWS V14.00,2013-11-21 00:41:00,
2013-11-20 18:46:00,58.7,43.5,29.87,SSE,155,6.0,8.0,57,0.00,,---,0.00,VWS V14.00,2013-11-21 00:46:00,
2013-11-20 18:51:00,58.7,43.5,29.88,SSE,155,4.0,9.0,57,0.00,,---,0.00,VWS V14.00,2013-11-21 00:51:00,
2013-11-20 18:56:00,58.7,43.5,29.88,SSE,155,7.0,7.0,57,0.00,,---,0.00,VWS V14.00,2013-11-21 00:56:00,
2013-11-20 19:01:00,58.8,43.6,29.88,SSE,156,6.0,7.0,57,0.00,,---,0.00,VWS V14.00,2013-11-21 01:01:00,
2013-11-20 19:06:00,58.7,43.5,29.89,SSE,155,5.0,9.0,57,0.00,,---,0.00,VWS V14.00,2013-11-21 01:06:00,
2013-11-20 19:11:00,58.7,43.5,29.89,South,171,9.0,12.0,57,0.00,,---,0.00,VWS V14.00,2013-11-21 01:11:00,
2013-11-20 19:16:00,58.7,43.5,29.89,South,169,7.0,9.0,57,0.00,,---,0.00,VWS V14.00,2013-11-21 01:16:00,
2013-11-20 19:21:00,58.7,43.5,29.89,SSE,161,7.0,10.0,57,0.00,,---,0.00,VWS V14.00,2013-11-21 01:21:00,
2013-11-20 19:26:00,58.7,43.5,29.89,SSE,168,7.0,10.0,57,0.00,,---,0.00,VWS V14.00,2013-11-21 01:26:00,
2013-11-20 19:31:00,58.7,43.5,29.89,South,170,5.0,12.0,57,0.00,,---,0.00,VWS V14.00,2013-11-21 01:31:00,
2013-11-20 19:36:00,58.6,43.4,29.89,SSE,166,4.0,7.0,57,0.00,,---,0.00,VWS V14.00,2013-11-21 01:36:00,
2013-11-20 19:41:00,58.6,43.4,29.89,SSE,163,5.0,9.0,57,0.00,,---,0.00,VWS V14.00,2013-11-21 01:41:00,
2013-11-20 19:46:00,58.5,43.3,29.89,SSE,163,3.0,7.0,57,0.00,,---,0.00,VWS V14.00,2013-11-21 01:46:00,
2013-11-20 19:51:00,58.4,43.2,29.89,SSE,163,4.0,10.0,57,0.00,,---,0.00,VWS V14.00,2013-11-21 01:51:00,
2013-11-20 19:56:00,58.3,43.6,29.89,SSE,163,6.0,9.0,58,0.00,,---,0.00,VWS V14.00,2013-11-21 01:56:00,
2013-11-20 20:01:00,58.3,43.6,29.89,SSE,162,5.0,7.0,58,0.00,,---,0.00,VWS V14.00,2013-11-21 02:01:00,
2013-11-20 20:06:00,58.3,44.0,29.89,SSE,158,4.0,9.0,59,0.00,,---,0.00,VWS V14.00,2013-11-21 02:06:00,
2013-11-20 20:11:00,58.3,44.0,29.89,SSE,155,3.0,8.0,59,0.00,,---,0.00,VWS V14.00,2013-11-21 02:11:00,
2013-11-20 20:16:00,58.4,44.1,29.89,SSE,153,5.0,11.0,59,0.00,,---,0.00,VWS V14.00,2013-11-21 02:16:00,
2013-11-20 20:21:00,58.4,44.1,29.89,SSE,159,5.0,13.0,59,0.00,,---,0.00,VWS V14.00,2013-11-21 02:21:00,
2013-11-20 20:26:00,58.4,44.1,29.89,SSE,157,11.0,14.0,59,0.00,,---,0.00,VWS V14.00,2013-11-21 02:26:00,
2013-11-20 20:31:00,58.5,44.7,29.89,South,179,5.0,14.0,60,0.00,,---,0.00,VWS V14.00,2013-11-21 02:31:00,
2013-11-20 20:36:00,58.6,44.8,29.91,South,175,3.0,15.0,60,0.00,,---,0.00,VWS V14.00,2013-11-21 02:36:00,
2013-11-20 20:41:00,58.7,44.4,29.91,South,188,6.0,12.0,59,0.00,,---,0.00,VWS V14.00,2013-11-21 02:41:00,
2013-11-20 20:46:00,58.8,45.0,29.90,SSE,165,6.0,11.0,60,0.00,,---,0.00,VWS V14.00,2013-11-21 02:46:00,
2013-11-20 20:51:00,59.0,44.7,29.90,SSE,167,6.0,11.0,59,0.00,,---,0.00,VWS V14.00,2013-11-21 02:51:00,
2013-11-20 20:56:00,59.0,44.7,29.89,SSE,152,5.0,16.0,59,0.00,,---,0.00,VWS V14.00,2013-11-21 02:56:00,
2013-11-20 21:01:00,59.0,44.7,29.89,SE,136,4.0,13.0,59,0.00,,---,0.00,VWS V14.00,2013-11-21 03:01:00,
2013-11-20 21:06:00,59.0,44.7,29.89,SSE,155,6.0,12.0,59,0.00,,---,0.00,VWS V14.00,2013-11-21 03:06:00,
2013-11-20 21:11:00,59.0,44.3,29.89,SE,142,10.0,15.0,58,0.00,,---,0.00,VWS V14.00,2013-11-21 03:11:00,
2013-11-20 21:16:00,59.0,44.3,29.89,SSE,153,4.0,13.0,58,0.00,,---,0.00,VWS V14.00,2013-11-21 03:16:00,
2013-11-20 21:21:00,59.0,44.3,29.90,South,182,15.0,15.0,58,0.00,,---,0.00,VWS V14.00,2013-11-21 03:21:00,
2013-11-20 21:26:00,59.0,44.3,29.90,SE,144,9.0,13.0,58,0.00,,---,0.00,VWS V14.00,2013-11-21 03:26:00,
2013-11-20 21:31:00,59.0,44.3,29.90,SSE,150,10.0,14.0,58,0.00,,---,0.00,VWS V14.00,2013-11-21 03:31:00,
2013-11-20 21:36:00,59.1,44.8,29.90,SSE,160,13.0,15.0,59,0.00,,---,0.00,VWS V14.00,2013-11-21 03:36:00,
2013-11-20 21:41:00,59.1,44.8,29.90,South,171,19.0,19.0,59,0.00,,---,0.00,VWS V14.00,2013-11-21 03:41:00,
2013-11-20 21:46:00,59.2,44.9,29.90,SSE,160,13.0,15.0,59,0.00,,---,0.00,VWS V14.00,2013-11-21 03:46:00,
2013-11-20 21:51:00,59.2,45.3,29.90,SE,142,9.0,14.0,60,0.00,,---,0.00,VWS V14.00,2013-11-21 03:51:00,
2013-11-20 21:56:00,59.1,45.2,29.89,SSE,159,4.0,20.0,60,0.00,,---,0.00,VWS V14.00,2013-11-21 03:56:00,
2013-11-20 22:01:00,59.1,45.7,29.89,SE,143,13.0,19.0,61,0.00,,---,0.00,VWS V14.00,2013-11-21 04:01:00,
2013-11-20 22:06:00,59.0,45.6,29.90,SSE,161,6.0,16.0,61,0.00,,---,0.00,VWS V14.00,2013-11-21 04:06:00,
2013-11-20 22:11:00,59.0,45.6,29.90,SE,142,9.0,15.0,61,0.00,,---,0.00,VWS V14.00,2013-11-21 04:11:00,
2013-11-20 22:16:00,59.1,45.7,29.91,South,171,10.0,16.0,61,0.00,,---,0.00,VWS V14.00,2013-11-21 04:16:00,
2013-11-20 22:21:00,59.1,45.7,29.90,SSE,159,9.0,12.0,61,0.00,,---,0.00,VWS V14.00,2013-11-21 04:21:00,
2013-11-20 22:26:00,59.1,45.7,29.90,SSE,163,12.0,15.0,61,0.00,,---,0.00,VWS V14.00,2013-11-21 04:26:00,
2013-11-20 22:31:00,59.0,45.6,29.91,South,170,7.0,13.0,61,0.00,,---,0.00,VWS V14.00,2013-11-21 04:31:00,
2013-11-20 22:36:00,59.0,45.6,29.91,South,175,11.0,16.0,61,0.00,,---,0.00,VWS V14.00,2013-11-21 04:36:00,
2013-11-20 22:41:00,59.0,45.6,29.91,South,181,7.0,19.0,61,0.00,,---,0.00,VWS V14.00,2013-11-21 04:41:00,
2013-11-20 22:46:00,59.0,45.6,29.91,South,177,7.0,14.0,61,0.00,,---,0.00,VWS V14.00,2013-11-21 04:46:00,
2013-11-20 22:51:00,59.0,45.6,29.91,SSE,161,6.0,14.0,61,0.00,,---,0.00,VWS V14.00,2013-11-21 04:51:00,
2013-11-20 22:56:00,59.0,45.2,29.91,South,169,6.0,14.0,60,0.00,,---,0.00,VWS V14.00,2013-11-21 04:56:00,
2013-11-20 23:01:00,59.0,44.7,29.91,SSE,153,9.0,15.0,59,0.00,,---,0.00,VWS V14.00,2013-11-21 05:01:00,
2013-11-20 23:06:00,59.1,44.3,29.91,SSE,156,7.0,15.0,58,0.00,,---,0.00,VWS V14.00,2013-11-21 05:06:00,
2013-11-20 23:11:00,59.0,44.3,29.91,SSE,168,9.0,14.0,58,0.00,,---,0.00,VWS V14.00,2013-11-21 05:11:00,
2013-11-20 23:16:00,59.1,43.9,29.91,SSE,151,10.0,16.0,57,0.00,,---,0.00,VWS V14.00,2013-11-21 05:16:00,
2013-11-20 23:21:00,59.0,43.8,29.91,SSE,165,7.0,14.0,57,0.00,,---,0.00,VWS V14.00,2013-11-21 05:21:00,
2013-11-20 23:26:00,59.0,43.8,29.91,SSE,157,6.0,15.0,57,0.00,,---,0.00,VWS V14.00,2013-11-21 05:26:00,
2013-11-20 23:31:00,59.0,43.8,29.92,SSE,165,9.0,15.0,57,0.00,,---,0.00,VWS V14.00,2013-11-21 05:31:00,
2013-11-20 23:36:00,59.0,44.3,29.92,South,174,10.0,16.0,58,0.00,,---,0.00,VWS V14.00,2013-11-21 05:36:00,
2013-11-20 23:41:00,59.0,43.8,29.92,SSE,167,7.0,14.0,57,0.00,,---,0.00,VWS V14.00,2013-11-21 05:41:00,
2013-11-20 23:46:00,59.0,43.8,29.91,SSE,155,10.0,13.0,57,0.00,,---,0.00,VWS V14.00,2013-11-21 05:46:00,
2013-11-20 23:51:00,59.0,43.8,29.91,SSE,159,7.0,11.0,57,0.00,,---,0.00,VWS V14.00,2013-11-21 05:51:00,
2013-11-20 23:56:00,59.0,43.8,29.92,South,186,13.0,14.0,57,0.00,,---,0.00,VWS V14.00,2013-11-21 05:56:00,
2013-11-20 23:57:00,59.0,43.8,29.92,SSE,168,8.0,14.0,57,0.00,,---,0.00,VWS V14.00,2013-11-21 05:57:00,